Showing default

TRANSIT 5B-2, 704

Orbit data source: Space-Track

TRANSIT 5B-2, 704 is a payload satellite owned by USN BuWeps (US) in LEO that was launched on Thu, 05 Dec 1963 UTC via a THOR ABLESTAR launch vehicle from the Air Force Western Test Range (AFWTR). Payload-class satellites include a variety of spacecraft equipped with specific instruments for various scientific and technological missions. These include communications satellites like Starlink; space stations such as the ISS; scientific satellites like the Hubble; Earth observation satellites from companies like Planet Labs, Umbra, and HawkEye 360; GPS; miniature CubeSats for education and research; and military/defense satellites.

Loading next visibility...
Identifier
704, 1963-049B
Orbit
LEO
Country
Flag of USUS
Related business
Manufacturer
APL
Mission
Spacecraft
Bus & Motor
TRANSIT 5, Unknown motor
Mass
75 kg wet, 75 kg dry
Launch date (UTC)
1963-12-05 (62 years ago)
Launch vehicle
THOR ABLESTAR
Launch site
Air Force Western Test Range (AFWTR)
Object type
Payload
Rocket body
Debris
Shape & HBR
Unknown
Radar Cross Section
Large (>1 m²)

Expand to show TLE details & history
Last TLE update: 8 hours ago

TLE from 8 hours ago
0 TRANSIT 5B-2
1   704U 63049B   25289.18918213  .00000109  00000-0  16371-3 0  9993
2   704  89.9173  72.3937 0033025 281.5104 252.4784 13.47093892 38475
Epoch: 2025-10-16T04:32Z
TLE epoch observation values (Epoch: 2025-10-16T04:32:25.336Z)
Latitude
6.29439°
Longitude
159.32658°
Altitude
1,092.818 km
Speed
7.303 km/s
True Right ascension
16h 49m 32s
True Declination
6° 15' 31"
Sunlit
Object was in daylight at epoch
Visualization orbit readout
Latitude
Unknown
Longitude
Unknown
Altitude
Unknown
Speed
Unknown
Apparent Right ascension
Unknown
Apparent Declination
Unknown
Sunlit
N/A
Visualization observer readout
Local Sidereal Time
06:48:24
Azimuth
Unknown
Elevation
Unknown
Doppler factor
Unknown
Orbital elements
Apogee altitude
1,104.655 km
Perigee altitude
1,055.393 km
Semi-major axis
7,458.161 km
Eccentricity
0.0033
Inclination
89.9173°
RAAN
72.3937°
Arg. of periapsis
281.5104°
True anomaly
252.11797°
Mean anomaly
252.4784°
Eccentric anomaly
252.29814°
Mean motion
3.36973 °/min
Orbital period
106.83 mins
BSTAR
0.00016371
Loading maneuver chart data...
Computing Atmospheric mass density...
Loading historical data...
Loading historical data...
Loading historical data...
Loading historical data...
Loading historical data...
Loading historical data...
Loading historical data...

Documentation

Showing up to 5 results
|